Rbgn^[z[y[W
メイン
   新天体発見情報
     Comet C/2018 A1 (PANSTARRS)
投稿するにはまず登録を

スレッド表示 | 古いものから 前のトピック | 次のトピック | 下へ
投稿者 スレッド
佐藤裕久
投稿日時: 2018-1-23 17:29
モデレータ
登録日: 2005-6-12
居住地: 日本
投稿: 2505
オンライン
Comet C/2018 A1 (PANSTARRS)

E. Lilly, R. J. WainscoatとR. Werykの通報によると、1月6日、Haleakala にある1.8-m Pan-
STARRS1望遠鏡で得た4枚のi-バンド露出から他の彗星を発見した。
この天体は、1".25-1".75のシーイングで近傍の恒星に比べ非常にソフトでFWHM(半値全幅)は2"
で、非対称の北西に低表面輝度のかすかな尾が見える。
小惑星センターのPCCP webpageに公表後、P. Birtwhistle (Great Shefford, Berkshire,英国, 
0.40-m f/6 Schmidt-Cassegrain望遠鏡; 1月7.83-7.84日と7.93-7.94日UT、彗星状で最大22"の
コマがあり光度は18.4-19.2等、おそらく南西にわずかに伸びていると観測した。

発見位置は次のとおり、

     2018 UT             R.A. (2000) Decl.       Mag.
     Jan.  6.57566   11 46 43.91   +74 19 10.1   19.1
           6.58935   11 46 40.79   +74 19 13.5   19.0
           6.60292   11 46 37.62   +74 19 16.4   19.1
           6.61655   11 46 34.48   +74 19 19.3   19.1

放物線軌道要素と位置推算表は次のとおり、

Orbital elements:
    C/2018 A1 (PANSTARRS)
T 2017 Nov. 17.14707 TT                                 MPCW
q   2.6401226            (2000.0)            P               Q
                   Peri.  109.10956     -0.05589741     -0.92268779
                   Node   332.89108     +0.24431540     +0.35781626
e   1.0            Incl.   56.84014     +0.96808340     -0.14357842
From 32 observations 2018 Jan. 6-11.

Ephemeris:
    C/2018 A1 (PANSTARRS)
Date    TT    R. A. (2000) Decl.     Delta      r     Elong.  Phase   m1
2017 12 12    12 39 18.3 +72 17 25   2.2091  2.6532   105.9    20.9  18.5
...
2017 12 27    12 18 36.5 +73 29 32   2.1367  2.6735   112.6    19.9  18.4
...
2018 01 04    11 55 57.2 +74 09 03   2.1067  2.6881   116.1    19.2  18.4
...
2018 01 10    11 33 02.8 +74 29 04   2.0896  2.7007   118.5    18.7  18.4
2018 01 11    11 28 45.7 +74 31 02   2.0873  2.7030   118.9    18.6  18.4
2018 01 12    11 24 21.2 +74 32 32   2.0852  2.7052   119.2    18.5  18.4
...
2018 01 18    10 55 46.3 +74 29 38   2.0759  2.7197   121.3    18.0  18.4
...
2018 01 26    10 14 56.5 +73 46 41   2.0746  2.7411   123.3    17.5  18.5
...
2018 02 10    09 08 51.6 +70 14 32   2.1112  2.7874   124.1    17.0  18.6

(CBET 4471、MPEC 2018-A43)

スレッド表示 | 古いものから 前のトピック | 次のトピック | トップ

投稿するにはまず登録を
 
© 1999 Tsutomu Seki.